Theta_e
275 275 275 275 275 275 275 275 275 275 274 274 274 274 274 274 274 273 273 273 273 273 273 274 274 275 275 275 275 276 276 276 277 277 277 277 278 278 278 279 279 280 281 281 282 284 286 288 291 293 295 296 297 299 300 302 304 305 305 305 306 307 308 308 308 311 315 317 320 324 324 326 327 327
275 275 275 275 275 275 275 274 274 274 274 274 274 274 274 274 273 273 273 273 273 273 273 273 274 274 274 274 275 275 275 276 276 276 277 277 277 278 278 279 279 280 281 281 282 283 285 287 289 292 294 295 297 298 299 301 302 304 305 306 307 307 308 308 308 310 315 317 320 322 323 324 326 326
275 275 275 275 274 274 274 274 274 274 274 274 273 273 273 273 273 272 272 272 272 272 273 273 273 273 274 274 274 275 275 276 276 276 277 277 277 278 278 278 279 280 280 281 282 282 284 286 287 290 293 294 296 297 298 300 301 303 305 306 307 307 308 309 307 309 314 317 319 321 321 321 322 323
275 275 275 274 274 274 274 274 274 273 273 273 273 273 273 272 272 272 272 272 272 272 273 273 273 273 274 274 274 275 275 276 276 276 277 277 277 278 278 278 279 279 280 281 282 282 282 284 286 288 291 293 295 296 298 299 300 301 304 305 306 307 309 309 308 309 311 314 317 319 320 320 318 319
275 275 274 274 273 273 273 273 273 273 273 273 272 272 272 272 272 272 272 272 272 272 273 273 273 273 274 274 274 275 275 276 276 276 277 277 277 278 278 278 279 279 280 280 281 282 282 283 285 287 290 292 294 296 297 298 299 300 302 304 305 306 308 309 309 310 311 311 313 316 319 320 319 317
275 275 274 273 273 273 272 272 272 272 272 272 272 272 272 272 272 272 272 272 272 273 273 273 273 274 274 274 275 275 275 276 276 276 276 277 277 277 278 278 279 279 279 280 281 282 282 282 284 286 288 291 293 295 296 297 298 299 301 303 304 304 306 309 310 310 311 311 311 311 315 319 320 318
275 274 273 273 272 272 272 272 272 272 271 271 271 271 271 271 272 272 272 272 273 273 273 273 274 274 274 274 275 275 275 275 275 276 276 276 277 277 278 278 279 279 280 280 281 282 282 282 283 285 287 290 292 294 296 297 298 298 300 301 303 303 305 307 309 310 310 310 310 310 311 315 319 320
274 274 273 272 272 272 272 272 272 272 271 271 271 271 271 271 272 272 272 273 273 273 273 273 274 274 274 274 274 274 275 275 275 275 276 276 277 277 278 278 279 279 280 280 280 281 282 282 283 284 286 289 291 293 295 296 297 298 299 300 301 302 304 306 308 308 308 309 309 309 309 312 316 319
274 273 272 272 272 272 272 272 272 272 271 271 271 271 271 271 272 272 272 273 273 273 273 273 274 274 274 274 274 274 274 275 275 276 276 276 277 277 278 278 278 279 279 280 280 281 282 283 283 283 285 288 290 292 294 295 296 297 298 299 300 301 303 304 305 305 306 307 307 307 307 309 312 317
273 272 272 272 272 272 272 272 272 272 271 271 271 271 271 272 272 273 273 273 273 273 273 273 273 273 273 273 274 274 274 275 275 276 276 276 276 277 277 278 278 279 280 281 281 281 282 283 283 283 285 287 289 292 293 295 296 297 298 298 299 300 302 303 303 303 303 304 304 305 305 307 310 314
273 272 272 272 272 272 272 272 272 272 271 270 271 271 272 272 273 273 273 273 273 272 272 272 272 273 273 273 274 274 274 275 275 275 275 276 276 277 277 278 279 279 280 282 282 282 282 283 283 283 284 287 289 292 293 294 296 297 297 298 299 299 300 301 302 302 302 302 302 303 304 305 308 312
272 272 272 272 272 272 272 272 272 271 270 270 271 272 272 273 273 273 273 272 272 271 271 272 272 272 273 273 273 274 274 274 275 275 275 276 276 276 277 277 278 279 280 281 283 283 283 282 283 284 284 286 289 292 293 294 295 296 297 298 298 299 300 300 301 301 301 301 301 302 303 305 307 311
272 272 272 272 272 272 272 272 272 271 271 271 271 272 272 273 273 273 272 271 270 270 271 271 271 272 272 272 273 273 274 274 274 274 274 274 275 275 275 276 277 278 279 281 282 284 284 284 283 283 284 286 289 291 293 294 295 296 297 298 298 299 299 300 300 300 301 301 301 302 303 304 307 310
272 272 272 272 272 272 272 272 272 272 271 271 272 272 273 273 273 272 271 270 270 270 270 270 271 271 271 272 272 272 273 273 273 273 273 274 274 274 275 276 277 279 280 280 282 284 285 286 285 284 284 286 289 291 293 294 295 295 296 297 298 299 299 300 300 300 300 300 301 302 302 303 305 308
272 272 272 272 272 272 272 272 272 272 272 272 272 272 272 272 272 271 270 270 270 270 270 270 270 270 270 271 271 271 271 272 272 272 272 273 273 274 274 275 277 279 280 281 282 284 286 288 288 286 285 287 290 292 293 293 294 294 295 297 298 299 299 300 300 299 300 300 300 301 302 302 304 306
272 272 272 272 272 272 272 272 272 272 273 273 272 272 272 272 272 271 270 269 270 269 269 269 269 269 269 269 270 270 270 271 271 271 271 272 272 273 274 274 276 280 281 281 283 285 287 289 289 288 287 288 291 292 292 292 293 294 296 297 298 299 299 299 299 299 299 300 300 300 301 302 302 303
272 272 272 272 272 272 272 272 272 272 273 272 272 272 272 272 273 272 270 269 269 268 268 268 268 268 268 268 269 270 270 270 270 270 271 271 272 272 274 273 275 279 282 281 283 285 287 289 289 288 289 290 292 293 293 293 294 295 296 297 298 299 299 299 299 299 299 300 300 300 300 301 301 302
272 272 272 272 272 272 272 272 272 272 272 271 272 272 272 273 273 273 272 269 268 267 267 267 267 268 268 269 270 270 270 270 270 270 271 271 272 272 273 273 275 279 282 281 282 284 287 289 289 290 291 293 294 295 295 295 295 295 297 297 298 299 299 299 299 299 299 300 299 300 300 300 301 301
272 272 271 271 272 272 272 272 271 272 271 271 271 272 272 273 273 273 272 270 268 267 267 267 267 268 268 269 269 270 270 270 271 271 271 271 272 272 272 273 276 281 283 282 281 283 287 290 290 291 293 294 295 295 295 295 295 295 297 297 298 298 299 299 299 299 299 300 300 300 300 300 300 300
272 272 271 271 271 272 272 272 271 271 271 271 271 272 272 273 273 273 273 272 270 269 269 268 268 268 269 269 270 270 270 270 270 270 271 271 271 272 272 274 277 282 284 284 283 284 288 291 291 292 293 294 295 295 294 294 295 296 297 298 298 298 299 299 299 299 299 299 299 299 299 300 300 300
272 272 271 271 271 271 272 271 271 271 271 271 271 271 272 273 273 273 274 275 273 272 271 271 271 271 271 271 271 271 271 271 270 270 271 272 272 272 273 275 279 283 286 286 286 286 289 292 292 292 293 294 294 295 295 295 296 297 298 298 298 298 299 299 299 299 299 299 299 299 299 299 300 301
272 272 272 271 271 271 272 271 271 271 271 271 271 271 271 272 273 273 273 275 276 275 274 274 274 273 273 272 272 272 272 272 272 271 272 273 273 273 274 275 279 284 287 288 288 289 291 293 294 293 294 294 295 295 295 296 296 297 297 298 298 299 299 299 299 299 300 299 299 299 299 300 300 301
272 272 272 272 271 271 271 271 271 271 270 270 270 271 271 272 272 272 273 274 276 277 277 277 277 276 275 275 274 274 273 273 273 273 274 274 274 275 276 277 279 283 287 289 290 291 293 295 295 295 295 295 295 295 295 296 297 297 298 298 299 299 299 299 299 299 299 299 298 298 299 300 301 301
272 272 272 272 271 271 271 271 271 271 270 270 270 271 271 271 271 272 272 273 274 276 277 278 278 278 277 277 276 275 275 275 275 275 275 275 276 277 278 279 280 283 288 291 291 292 293 295 295 295 295 296 296 295 295 296 297 298 298 298 299 299 299 299 299 299 299 298 298 299 300 300 300 300
272 272 272 272 271 272 271 271 271 271 270 270 270 271 271 270 271 272 273 273 274 275 276 277 278 278 279 279 278 277 277 276 276 277 277 277 277 278 278 280 282 284 288 291 292 293 293 294 295 295 296 296 296 296 296 296 297 298 298 299 299 299 299 299 298 298 298 298 299 300 300 300 300 300
272 272 272 272 272 272 271 271 271 271 270 270 271 271 270 271 271 272 273 273 273 274 275 276 277 278 279 280 280 279 279 278 278 278 279 278 278 278 279 280 283 286 288 291 292 292 293 294 294 295 295 296 296 296 297 297 297 298 298 298 298 298 298 298 298 298 299 299 300 300 300 300 300 300
272 272 272 272 272 271 271 271 271 270 270 270 270 271 271 271 272 273 273 273 273 273 274 275 276 277 278 279 280 280 280 280 280 280 280 280 279 280 280 281 284 287 289 291 291 292 293 293 294 294 295 295 296 296 296 297 297 298 298 298 298 298 298 298 299 299 299 300 300 300 300 300 300 300
272 272 272 272 272 271 271 271 271 270 270 270 270 271 271 272 272 273 273 273 273 273 273 274 274 275 276 277 278 279 280 281 281 281 281 280 280 281 282 283 284 287 290 291 292 292 292 293 293 294 295 295 295 295 296 296 297 298 298 297 297 298 298 299 299 299 299 300 300 300 300 300 301 301
272 272 272 272 271 271 271 271 270 270 270 270 270 271 271 272 272 273 272 272 272 273 273 273 273 274 274 275 277 278 280 281 282 283 283 282 282 283 284 284 285 287 289 291 292 292 292 292 292 293 294 295 295 295 296 296 297 297 298 297 298 298 299 299 299 299 299 299 300 300 300 301 301 301
271 272 272 271 271 271 271 270 270 270 271 271 271 271 272 272 272 272 272 272 272 272 272 272 272 273 274 275 276 278 279 281 282 283 284 284 284 284 285 285 286 286 287 289 290 291 291 292 292 293 294 294 295 295 295 296 297 297 297 298 298 298 298 299 299 299 299 299 299 300 300 300 300 300
271 271 271 271 270 270 270 270 271 271 271 271 271 271 272 272 271 271 271 271 271 272 272 272 272 273 273 274 275 277 278 279 280 282 283 284 284 285 286 286 286 286 286 287 288 289 290 291 292 292 293 294 294 295 295 295 296 297 297 298 298 298 298 298 298 298 298 298 298 298 298 299 298 298
271 272 271 270 270 270 271 271 271 271 271 271 271 271 271 271 271 271 271 271 271 272 272 272 272 273 273 274 274 275 276 277 279 280 281 282 283 284 285 286 286 286 287 288 289 289 290 290 291 292 292 293 294 294 294 294 295 296 296 297 297 298 298 298 298 298 298 297 297 297 297 297 297 297
272 272 271 271 271 271 271 271 271 271 271 270 270 271 271 271 271 271 271 271 271 271 271 272 272 273 273 274 274 274 275 275 277 278 279 280 281 283 283 283 283 284 286 287 287 288 289 289 290 290 291 292 293 293 294 294 294 295 295 296 296 296 297 297 297 298 298 297 297 296 296 296 296 297
272 272 271 271 272 271 271 271 271 271 271 270 270 270 270 270 271 271 271 271 271 271 271 271 271 272 272 273 274 274 274 274 275 276 277 278 279 280 281 282 282 283 284 285 286 287 287 288 288 288 289 290 291 292 292 293 293 293 294 294 294 295 295 295 296 297 297 297 297 297 296 296 296 296
272 272 272 272 272 271 271 271 271 271 271 270 270 270 270 270 270 271 271 271 271 271 271 271 271 271 272 272 272 273 273 274 274 275 276 277 277 278 278 279 280 281 282 283 284 285 286 287 288 288 288 289 290 290 290 291 291 291 292 293 293 293 294 294 295 296 296 297 297 297 296 297 297 296
272 272 272 272 271 271 271 271 271 271 271 271 271 271 270 270 270 271 271 271 271 271 271 271 271 271 271 271 271 272 272 273 273 274 275 275 276 276 276 276 277 278 280 281 282 283 285 286 287 287 288 288 288 287 287 287 289 290 290 291 292 292 293 294 295 295 296 296 296 296 296 296 296 296
272 272 272 272 271 271 271 271 271 271 271 271 271 270 270 270 270 270 270 270 271 271 271 271 271 271 271 271 271 271 271 271 272 273 273 274 274 275 275 275 276 277 277 278 280 281 282 284 285 286 286 286 286 285 285 286 287 288 289 290 291 291 292 293 294 295 295 295 296 296 296 296 296 296
272 272 272 272 272 272 271 271 271 271 271 271 271 271 270 270 270 270 270 270 271 271 271 271 271 271 271 271 271 271 271 271 271 272 272 273 273 273 274 274 275 275 276 277 278 279 280 281 282 283 284 284 284 283 284 286 286 286 287 289 289 290 292 292 293 293 294 295 295 295 296 296 296 296
272 272 272 272 272 272 272 272 272 271 271 271 271 271 271 271 271 271 271 271 271 271 271 271 271 271 271 271 271 271 271 271 271 271 271 271 271 272 272 273 273 274 275 275 276 277 278 279 280 281 282 282 282 282 283 284 285 285 286 287 288 289 291 292 292 292 293 294 294 295 295 296 295 295
272 272 272 272 272 272 272 272 272 272 272 272 271 271 271 271 271 271 271 271 271 271 271 271 271 271 272 271 271 271 271 271 271 271 271 271 271 271 271 272 272 273 274 274 275 275 275 276 277 279 280 281 282 283 283 284 286 286 286 286 287 288 290 290 291 291 292 293 293 294 295 295 295 295
272 272 272 272 272 272 272 272 272 272 272 272 272 272 272 272 272 271 271 271 271 272 272 271 271 271 272 272 272 272 271 271 271 271 271 271 271 271 271 271 272 272 272 272 273 273 274 274 275 277 279 281 282 283 284 284 285 286 287 287 287 288 289 290 290 291 291 292 293 293 294 294 295 295
273 272 272 273 272 272 272 272 272 272 272 272 272 272 272 272 272 271 271 271 272 272 272 272 271 271 271 272 271 271 271 271 271 271 271 271 271 271 271 271 271 271 271 271 271 272 273 274 275 276 278 280 282 283 282 282 283 285 286 288 288 289 289 289 290 290 290 291 292 292 293 293 294 294
273 273 273 273 273 273 273 272 272 272 272 272 272 272 272 272 272 272 272 272 272 272 272 272 272 271 271 271 271 271 271 271 271 271 271 271 271 271 271 271 271 271 271 271 271 272 273 274 275 276 277 278 279 280 280 280 281 283 284 286 288 289 289 289 290 290 290 290 291 291 292 292 293 293
273 273 273 273 273 273 273 272 272 272 272 272 272 272 272 272 272 272 272 272 272 272 272 272 272 271 271 271 271 271 271 271 271 271 271 271 271 271 271 271 271 271 271 272 272 273 273 273 274 275 275 276 276 277 278 279 280 281 282 284 286 288 289 289 290 290 290 290 291 291 292 292 292 293
273 273 273 273 273 273 273 273 273 273 273 273 273 272 272 272 272 272 272 272 272 272 272 272 272 272 271 271 271 271 271 271 271 271 271 271 271 271 271 271 271 271 271 272 272 273 273 273 274 274 274 274 275 275 276 277 278 279 281 283 285 286 287 288 289 289 290 291 291 291 292 292 293 293
Wind_Speed
19 20 20 18 17 16 18 20 21 21 21 21 22 24 23 22 25 29 33 35 30 25 24 24 23 20 19 22 24 25 27 26 26 27 28 28 28 27 26 24 23 25 28 31 33 35 37 38 36 36 35 35 36 37 40 43 44 46 48 47 46 45 44 39 38 37 27 25 36 47 49 51 55 58
19 19 19 18 18 18 19 20 21 21 21 21 22 23 23 21 22 24 30 37 33 26 24 23 23 25 25 25 28 27 28 28 27 27 28 28 28 28 27 25 25 25 28 31 33 35 37 38 38 36 35 35 36 37 38 41 45 46 47 47 45 45 45 40 38 37 30 25 32 42 46 47 49 51
17 18 19 18 19 20 21 22 22 20 19 21 22 23 23 22 22 22 25 35 38 29 26 28 27 28 29 28 28 29 28 28 27 27 28 28 28 28 28 27 25 25 27 30 33 35 37 39 39 38 36 35 35 36 37 38 42 45 47 48 47 46 44 41 40 34 25 23 30 39 46 46 47 48
17 18 18 19 21 23 23 22 21 18 18 21 22 23 23 22 23 23 22 32 41 34 27 31 31 28 30 30 29 29 29 28 27 27 27 28 29 29 29 28 26 26 26 29 32 34 36 38 40 39 38 37 36 36 36 37 39 42 47 48 46 47 44 40 41 36 24 19 21 31 44 47 46 49
18 17 18 22 25 24 24 24 23 22 21 21 22 22 23 23 22 23 24 30 40 38 30 30 32 30 30 32 30 28 30 29 27 28 28 28 28 29 30 30 28 27 27 29 31 34 36 38 40 41 40 38 37 36 36 36 37 39 44 47 45 46 45 40 41 41 32 23 16 18 35 45 45 47
17 17 21 25 26 24 25 27 28 26 23 22 22 22 22 24 23 24 26 29 36 41 36 31 33 32 30 31 31 28 29 30 29 29 30 29 28 28 28 29 29 28 28 29 31 34 36 37 40 41 41 40 38 37 36 36 36 37 40 45 46 45 46 42 42 44 39 32 23 14 20 37 43 45
16 19 24 26 25 25 27 29 29 28 25 23 22 22 22 25 26 26 27 30 33 39 40 35 33 32 31 31 31 29 29 30 30 30 30 28 28 27 27 28 29 29 29 30 32 34 36 37 39 41 42 42 40 38 37 36 36 36 38 42 46 46 46 45 44 45 42 39 35 24 16 25 37 43
17 22 26 26 25 26 27 28 29 28 27 23 22 24 24 25 28 29 28 30 32 36 40 39 35 33 32 31 30 29 29 29 29 29 28 27 27 27 27 28 29 29 29 31 33 34 36 38 39 42 43 43 41 39 38 37 35 35 36 39 43 46 47 47 47 48 47 43 40 35 24 19 26 36
19 24 26 25 24 25 26 27 29 28 26 24 24 25 27 29 32 32 30 30 31 33 36 39 36 33 32 32 30 28 28 28 27 26 26 26 26 27 27 27 28 29 30 31 33 34 36 39 40 42 44 44 43 40 39 38 36 35 35 36 39 43 47 49 48 48 50 47 42 39 33 25 21 28
22 25 25 24 23 24 25 27 28 28 26 24 25 28 31 34 33 33 31 30 30 31 32 35 37 35 32 31 30 26 24 25 26 27 27 26 26 26 26 27 26 26 27 29 32 33 35 38 40 42 45 45 44 42 39 38 37 36 36 35 36 39 43 48 48 46 46 47 45 41 37 32 25 23
24 25 24 24 23 23 25 27 28 28 26 24 27 31 33 34 33 34 33 30 31 33 33 34 35 33 30 28 28 25 23 23 25 25 26 27 25 23 23 24 24 23 24 24 27 30 33 35 38 41 44 45 44 43 41 38 38 37 37 36 36 36 39 43 46 45 43 44 43 40 38 36 32 27
24 23 23 23 23 23 25 26 27 27 24 24 29 32 33 35 35 34 33 33 33 33 32 31 30 29 29 27 26 25 22 22 22 21 22 26 26 24 24 25 26 26 27 25 23 25 29 33 36 39 42 44 45 43 42 40 38 37 36 36 36 36 36 39 41 42 42 42 40 40 40 39 37 32
23 23 23 23 23 23 24 25 26 25 23 24 29 32 33 35 35 34 36 36 31 27 27 28 27 27 28 27 25 24 22 21 22 21 22 26 27 26 27 30 30 28 28 28 24 23 26 30 34 37 41 44 45 44 42 40 39 37 35 35 36 36 36 37 38 39 40 41 40 41 41 41 39 37
23 23 23 22 23 22 23 24 25 26 24 24 27 29 30 32 33 35 37 33 26 25 27 28 27 27 29 28 25 26 27 24 23 23 24 26 26 25 26 30 30 27 26 29 28 24 24 26 31 35 39 41 42 42 43 42 40 38 36 35 35 36 37 37 37 37 38 39 40 41 42 41 41 41
24 24 23 23 23 23 23 23 25 26 25 25 27 28 29 31 32 32 30 28 27 27 28 29 27 27 31 32 30 30 30 27 24 24 24 24 24 24 24 28 29 25 22 25 28 26 23 24 28 32 37 39 37 38 42 43 41 39 37 36 36 36 37 37 37 36 37 38 39 40 41 40 41 42
23 24 23 23 23 23 23 24 25 26 25 27 30 30 31 32 33 29 25 25 28 28 29 31 30 30 33 36 35 33 34 33 30 27 25 24 25 25 25 27 29 25 18 20 26 26 24 25 28 31 35 37 36 35 38 41 40 38 38 37 36 37 37 37 37 37 36 37 37 39 40 40 41 42
21 22 22 22 23 23 23 24 25 26 27 31 33 33 32 33 33 32 26 22 23 24 27 30 33 34 35 37 38 37 36 35 33 32 30 27 25 27 27 28 30 25 20 23 26 25 24 26 29 32 34 34 34 35 35 37 38 37 37 37 36 37 38 38 38 38 37 37 37 38 39 40 40 42
19 21 21 22 23 23 23 24 24 26 29 33 34 33 33 33 33 33 31 26 23 22 25 28 32 34 33 35 38 37 33 32 33 34 34 30 27 28 29 30 31 26 24 27 28 24 23 27 30 32 33 31 31 32 32 33 34 35 35 36 37 37 38 38 39 39 38 38 37 37 37 38 40 41
18 19 20 21 22 23 23 23 23 25 28 32 33 32 32 33 33 33 32 29 25 23 24 26 28 30 31 33 34 33 31 31 32 32 32 30 28 30 31 32 31 28 27 29 30 27 22 25 31 33 32 30 29 30 30 31 32 33 33 34 36 37 38 39 39 39 39 38 37 37 37 38 39 40
17 18 19 20 21 22 23 23 22 23 27 30 31 32 32 32 32 31 30 27 22 18 18 20 23 26 28 29 29 29 27 28 29 28 28 29 28 29 31 32 29 27 29 29 30 29 22 23 31 34 31 30 30 30 31 32 32 33 32 32 35 38 38 39 40 40 39 38 37 36 36 37 38 38
16 17 18 19 20 21 21 21 21 23 26 29 30 31 31 31 30 29 29 26 20 14 12 13 15 17 19 20 21 21 22 23 23 23 25 26 24 23 26 28 25 26 29 26 26 27 22 22 30 32 29 30 31 31 34 35 34 33 31 31 34 37 38 39 40 40 38 38 37 36 36 36 36 37
16 16 17 17 18 19 20 20 21 22 25 28 29 30 30 30 30 29 28 26 23 19 16 15 13 11 11 10 8 9 10 12 13 14 16 15 15 18 22 23 21 19 19 19 21 23 22 23 29 31 28 28 30 32 35 37 37 34 31 30 32 35 38 38 39 39 38 37 37 36 36 36 35 35
16 16 16 16 16 17 18 19 20 22 23 26 27 28 29 30 30 29 28 28 27 25 23 22 21 20 18 15 10 6 3 2 3 4 5 5 7 14 16 16 16 15 15 18 22 24 21 21 25 28 26 24 25 30 34 35 36 34 31 30 31 34 37 37 38 38 37 36 36 36 36 35 35 34
16 15 15 15 15 15 17 19 21 22 22 23 25 26 27 28 29 28 27 27 28 27 26 26 26 26 25 24 20 16 11 7 4 3 3 3 2 5 4 4 9 11 12 19 23 23 21 18 21 26 26 21 19 24 30 31 31 31 30 30 32 33 35 36 36 37 36 35 35 35 35 34 34 33
15 15 15 15 14 14 17 20 22 23 22 22 23 24 24 24 25 26 25 25 26 27 27 28 28 28 28 28 27 23 19 15 10 6 3 3 3 3 6 6 5 5 11 18 22 22 19 16 19 24 25 21 16 17 23 26 27 29 29 30 32 33 34 35 36 36 35 34 34 34 34 34 33 34
14 14 15 14 14 15 18 21 22 23 22 21 22 22 21 21 22 22 23 24 26 27 28 29 30 30 29 30 30 28 25 21 16 10 7 7 7 8 9 7 2 3 9 14 20 22 19 15 15 19 21 20 15 13 16 21 23 26 27 28 30 31 32 34 35 35 35 35 35 35 35 34 34 34
13 13 14 14 14 17 19 21 22 22 22 21 20 20 20 20 20 20 22 24 26 27 28 29 30 32 32 32 33 31 28 25 22 16 13 13 12 11 13 12 7 4 4 9 14 19 19 14 13 14 17 17 15 14 15 17 19 23 26 27 28 29 30 31 33 34 35 35 35 35 35 35 35 35
12 13 13 14 16 18 19 21 21 21 20 19 18 18 18 19 20 21 23 25 26 27 28 29 31 32 34 35 35 33 31 28 27 23 19 18 16 15 15 14 10 5 3 7 8 12 16 15 14 15 16 17 16 16 16 17 17 20 24 26 27 28 29 30 32 34 34 35 35 35 36 36 36 35
10 12 12 13 16 17 18 19 20 19 18 17 17 17 17 19 21 22 24 26 26 27 29 30 31 32 33 33 33 33 31 29 28 27 24 21 17 16 16 14 12 8 4 6 8 10 13 15 16 16 16 17 17 16 15 17 18 19 21 25 28 28 29 30 32 34 35 36 36 36 36 37 37 36
9 10 11 12 14 16 17 18 18 17 16 16 16 17 17 19 22 24 25 26 27 28 29 30 31 32 32 32 31 31 31 31 30 30 28 26 23 20 19 18 16 14 9 5 6 9 11 14 16 17 17 17 18 17 15 16 18 19 19 21 25 27 28 30 31 32 34 35 36 36 36 37 37 37
8 9 10 12 13 13 14 14 15 15 15 16 17 17 18 20 22 23 24 26 26 28 29 30 31 31 30 31 31 31 32 33 32 32 32 31 31 28 25 24 23 20 16 11 8 7 7 9 12 15 16 16 17 19 18 16 16 18 18 19 21 24 26 29 31 33 33 34 34 34 35 35 36 37
7 9 11 12 12 11 11 11 12 13 15 16 17 18 19 20 21 22 23 24 25 27 28 29 29 30 30 31 32 32 33 33 33 33 33 33 34 33 32 31 31 27 21 16 13 11 9 6 5 7 11 14 16 18 18 15 14 15 16 17 19 21 24 26 29 33 34 33 32 33 34 35 36 37
7 9 11 11 11 11 12 12 12 13 14 16 18 19 20 22 22 23 25 25 26 27 28 29 30 30 30 30 31 32 33 34 33 33 34 34 34 35 35 36 37 35 31 26 21 17 15 14 13 11 6 8 12 14 15 14 12 12 14 14 15 19 23 25 25 28 32 34 34 33 34 35 36 36
7 9 11 11 11 12 12 13 14 15 17 18 19 21 23 24 25 25 26 27 27 28 29 30 30 31 31 31 32 33 33 34 34 34 34 34 35 36 36 37 37 36 35 33 30 24 19 17 18 20 17 11 10 11 12 12 11 10 11 13 14 17 21 22 21 23 27 31 34 34 34 34 35 35
6 9 10 10 10 11 12 14 15 17 18 20 21 22 24 25 26 27 28 28 29 30 31 31 31 31 32 32 33 34 34 34 34 33 33 34 35 36 37 37 37 36 35 35 34 31 26 21 18 20 21 19 17 15 12 9 10 10 9 11 12 14 17 19 19 19 21 26 30 31 32 33 34 34
6 8 8 8 9 10 11 13 15 17 18 20 21 23 24 25 26 28 28 29 30 31 32 33 32 33 33 33 34 35 35 35 35 34 34 34 35 35 35 36 36 35 35 34 34 33 31 28 25 23 22 22 23 21 18 14 10 9 8 8 8 10 12 15 17 19 20 24 27 29 29 31 33 33
5 6 6 6 7 9 10 12 14 16 17 19 20 22 23 24 25 27 28 28 29 31 33 33 33 34 35 35 35 36 36 36 36 35 35 35 35 35 35 35 34 34 34 34 33 32 32 31 30 29 27 26 25 23 20 18 17 13 9 8 6 6 8 10 13 16 19 22 26 27 27 27 30 31
4 5 4 5 6 8 9 11 13 14 16 17 19 20 21 23 24 25 27 28 29 31 32 33 33 35 35 36 37 37 37 37 37 36 36 36 36 36 35 34 34 33 33 32 32 32 32 32 32 31 30 27 24 21 19 19 20 18 14 11 8 5 6 7 7 9 12 17 22 24 24 24 25 27
4 4 3 4 5 6 8 9 11 13 14 16 17 19 20 22 23 25 26 27 28 30 31 32 33 34 35 36 37 37 38 38 38 38 37 37 37 37 36 34 33 32 32 32 31 31 32 32 32 30 28 25 22 20 19 20 21 20 17 14 11 6 5 6 6 5 7 12 17 20 21 22 22 23
4 4 3 3 4 5 6 8 10 11 13 14 16 17 19 20 22 24 25 26 27 29 30 32 32 33 34 35 36 36 37 38 38 38 38 38 38 37 36 35 34 33 32 32 32 32 32 32 30 28 25 23 20 19 19 19 20 19 17 14 11 8 7 5 5 5 5 8 12 16 18 19 20 20
5 5 4 3 3 4 5 7 8 10 11 13 14 16 17 19 20 22 23 24 26 27 29 30 31 32 33 34 35 35 36 37 38 38 38 38 38 38 37 36 35 34 33 33 32 31 30 28 25 23 22 20 18 19 22 23 22 19 17 14 11 8 8 7 6 5 2 3 8 11 13 15 17 19
7 6 4 3 2 3 4 5 7 8 10 11 13 14 15 17 19 20 21 22 23 25 26 28 29 30 31 32 33 34 35 36 37 37 37 37 38 38 38 37 37 36 35 33 31 28 26 23 22 21 21 20 19 21 25 26 24 22 19 17 13 8 7 9 9 9 8 3 2 5 7 10 12 14
8 7 6 4 3 2 2 3 5 6 8 9 11 12 13 15 16 18 19 20 22 23 24 25 27 28 29 30 31 33 33 34 35 36 36 37 37 37 37 37 37 36 35 33 30 27 25 23 22 22 22 22 22 23 24 24 24 24 22 19 16 11 7 7 8 9 10 7 3 0 2 5 7 8
10 9 7 6 4 2 1 2 3 4 6 7 8 10 11 13 15 16 18 19 20 21 22 24 25 25 26 28 29 30 31 32 33 34 34 35 35 36 36 36 36 35 35 34 32 30 28 26 25 24 24 24 24 24 24 23 23 24 23 20 18 15 11 8 6 5 6 6 4 2 1 3 6 8
12 10 9 7 6 4 1 1 2 3 4 5 6 8 9 11 13 14 16 17 19 20 21 22 23 24 25 26 27 28 29 30 31 32 32 33 34 34 35 35 35 35 35 35 35 34 32 30 27 26 25 24 23 23 23 22 22 23 23 21 19 18 16 14 10 7 4 5 5 4 3 2 4 8
Wind_Direction
304 303 304 302 300 300 301 301 299 298 297 296 296 295 294 294 297 301 300 297 297 299 300 299 300 301 300 300 299 298 296 295 295 295 294 294 293 292 290 283 272 258 251 250 246 242 242 241 240 239 240 241 239 238 236 232 230 230 232 234 235 241 249 252 254 255 247 227 217 214 212 209 210 209
304 304 303 301 300 301 303 302 300 298 297 296 296 295 292 290 289 292 295 294 293 296 298 296 297 299 300 299 298 297 296 295 295 294 294 294 294 293 291 284 275 264 252 248 247 243 241 241 240 238 238 240 240 239 238 234 233 231 229 231 232 236 242 245 250 253 246 229 214 211 211 210 210 210
304 304 303 301 302 305 305 303 300 298 297 296 296 294 291 288 285 285 288 288 288 291 296 296 297 298 299 299 298 296 295 295 295 294 292 293 294 293 291 286 278 270 257 249 247 246 243 242 241 239 236 238 239 239 239 236 235 232 228 230 232 234 237 239 242 249 248 229 214 209 210 212 213 212
302 303 302 301 304 306 305 303 300 298 297 296 295 293 290 287 284 283 281 281 285 289 292 294 296 298 299 298 297 295 295 294 293 293 291 292 293 292 290 288 281 274 264 252 247 246 245 242 241 239 236 236 237 237 238 237 237 234 228 229 232 232 232 233 234 241 250 239 221 213 211 212 215 215
302 302 301 303 308 310 309 307 304 300 297 295 293 292 290 287 284 283 282 281 286 290 292 293 294 296 297 296 295 295 295 294 293 293 292 291 290 289 288 287 282 275 268 256 247 245 245 243 240 239 236 235 235 235 236 236 237 236 230 228 233 233 231 229 227 233 245 244 230 215 209 209 213 215
303 301 301 308 313 314 312 313 313 308 302 298 294 291 289 288 286 284 284 284 287 291 293 294 294 295 295 294 294 294 293 293 293 292 291 289 287 286 284 284 281 276 271 262 250 245 245 244 241 239 237 234 234 235 235 236 236 236 232 229 232 235 233 229 224 227 238 242 238 229 208 207 210 213
302 302 306 312 315 316 315 316 319 317 311 303 294 291 290 290 290 288 287 285 286 290 293 295 295 295 294 292 292 292 290 290 290 290 290 288 286 284 283 282 280 276 272 267 256 247 245 245 242 239 237 234 234 235 235 235 236 237 235 232 232 234 233 230 226 227 235 240 242 243 225 205 207 210
301 305 311 315 316 317 317 318 322 322 317 308 301 299 297 295 295 294 290 286 286 288 291 292 293 293 293 291 290 291 291 289 288 288 288 288 286 284 282 281 279 277 273 268 261 250 244 244 243 239 236 234 233 235 235 236 236 237 237 236 234 234 234 232 230 231 233 237 242 247 246 222 205 206
302 310 316 318 317 319 320 322 325 325 320 316 314 310 307 304 301 296 292 289 287 286 287 290 291 291 290 289 288 289 289 289 289 288 287 286 285 284 283 280 279 277 274 270 263 255 245 242 242 239 235 233 232 234 235 236 237 236 237 239 238 235 234 234 235 237 237 237 241 247 251 246 219 201
306 314 318 317 318 321 322 325 327 326 324 322 318 313 311 310 304 297 295 293 289 286 286 287 290 289 288 287 287 286 285 286 288 289 289 287 284 283 282 280 279 279 277 274 268 261 251 244 242 240 235 232 231 232 234 236 237 236 236 238 240 237 234 234 237 241 243 242 243 246 250 251 239 212
309 317 318 316 320 324 325 327 329 327 325 320 315 314 313 311 306 300 297 294 290 290 288 285 286 286 286 284 283 284 283 282 284 287 289 289 287 284 281 280 280 278 274 274 274 266 255 247 244 242 238 233 230 230 232 233 234 235 234 235 238 238 236 235 237 240 243 243 243 246 247 247 243 229
312 319 317 317 322 326 328 329 329 327 322 314 312 313 313 310 307 304 300 297 296 292 287 284 284 284 283 282 282 284 284 281 282 283 286 288 287 285 282 277 276 274 266 261 268 270 259 249 244 241 239 234 231 230 231 232 233 233 234 234 235 236 237 236 236 237 239 239 240 243 245 244 241 235
314 318 316 318 323 325 328 328 326 327 325 316 312 313 314 314 313 308 303 302 299 291 285 284 283 283 283 282 282 282 281 280 282 284 284 284 284 285 283 278 273 271 264 254 255 263 261 252 244 239 237 234 230 230 231 232 233 235 236 236 234 234 235 236 236 235 235 236 236 239 242 243 240 237
312 315 316 318 320 323 326 325 325 328 328 326 323 318 316 316 313 307 304 303 297 289 287 285 283 283 281 279 280 281 282 283 282 284 284 283 284 284 284 281 273 265 260 253 250 254 254 251 247 240 234 232 232 232 231 230 232 234 236 237 234 232 233 234 235 234 233 233 234 235 238 240 240 238
310 313 316 317 318 322 325 325 327 326 324 333 335 325 319 317 314 312 308 302 297 293 289 285 283 281 279 280 282 282 284 286 283 283 283 280 282 281 279 280 275 262 253 250 251 255 250 243 243 239 232 229 230 233 233 230 230 235 237 237 235 232 232 233 234 233 232 232 233 233 235 237 237 237
310 313 315 316 318 321 324 327 327 323 325 337 337 329 326 326 324 326 319 302 296 294 290 287 283 280 280 282 283 283 285 287 285 284 281 276 277 276 272 275 272 260 244 241 248 256 251 237 235 235 230 227 228 233 235 233 231 235 238 238 236 233 232 232 233 232 232 232 232 232 233 234 235 236
311 312 314 316 317 320 325 327 325 327 334 338 333 331 334 333 333 336 332 315 301 294 289 287 284 281 282 282 283 284 286 287 288 287 283 277 274 271 267 270 270 258 243 240 246 253 248 235 232 231 228 227 229 232 235 234 232 233 236 237 235 233 232 231 231 231 231 231 231 232 232 233 233 234
312 312 315 317 317 319 325 327 328 336 337 329 327 333 337 336 337 340 340 335 322 304 292 287 285 285 285 284 286 289 290 291 291 289 285 279 272 269 269 271 268 254 240 243 250 251 240 228 227 226 223 223 226 228 231 233 233 233 234 235 234 233 232 231 230 230 230 230 231 231 232 232 233 233
314 315 317 317 317 320 324 328 335 339 331 321 326 336 337 338 342 344 344 342 330 310 296 289 288 290 291 291 292 295 296 293 287 283 281 276 271 272 273 271 264 247 230 234 246 248 233 219 221 222 220 220 222 226 231 234 235 236 235 234 233 232 231 231 230 229 230 230 231 231 231 232 232 232
318 319 318 317 319 320 323 330 339 336 324 321 330 336 337 340 345 346 347 346 336 315 300 292 288 288 287 286 285 286 284 282 278 277 274 270 270 272 269 267 261 239 220 224 238 242 231 218 218 218 218 219 221 225 232 234 235 236 236 235 233 231 230 230 230 230 230 231 231 231 231 231 231 231
322 322 320 318 318 320 324 333 338 332 325 326 332 336 337 341 346 349 351 354 353 348 335 318 303 293 288 284 279 275 271 267 265 268 269 268 266 264 263 265 259 233 218 221 232 233 229 220 216 214 215 219 221 224 230 234 236 236 236 237 234 231 230 230 230 230 231 232 232 231 230 230 230 230
325 323 321 320 320 323 328 334 336 333 329 329 333 336 338 342 349 352 354 358 3 7 9 6 0 353 345 332 309 288 272 257 251 259 270 270 258 248 249 256 257 243 233 235 229 222 221 218 213 213 215 219 223 226 229 233 237 237 238 238 235 232 230 229 230 230 231 232 232 230 228 227 227 228
325 324 321 322 324 326 331 336 337 336 333 331 332 336 340 345 349 352 356 2 6 9 12 15 16 20 24 27 27 24 6 278 255 276 296 294 255 245 241 245 260 265 249 231 217 208 209 208 203 205 207 209 217 225 229 233 237 237 239 238 233 230 230 229 229 230 230 231 230 228 226 225 226 228
325 324 322 325 328 331 336 340 339 337 336 333 332 337 343 347 348 352 358 5 8 11 12 14 17 20 24 31 36 40 41 41 44 40 15 11 286 255 261 277 284 271 227 208 203 199 200 200 194 197 203 203 208 221 227 232 235 234 235 233 230 228 227 227 228 227 227 228 227 225 225 225 225 228
324 325 324 327 332 338 344 345 340 338 337 334 333 339 345 346 345 349 357 5 10 13 14 15 18 20 22 28 33 38 43 45 53 72 74 56 82 76 39 8 301 235 186 191 197 193 189 190 190 193 200 202 205 217 224 228 231 231 229 228 227 225 225 224 224 224 223 223 222 222 223 224 225 228
324 328 326 328 339 349 350 346 340 337 336 335 337 340 343 344 344 348 357 6 12 17 18 18 19 21 23 26 30 35 41 46 52 71 96 94 96 94 73 57 43 158 162 183 194 189 182 179 181 188 196 199 200 210 218 221 225 225 224 223 223 223 223 222 221 221 219 219 220 221 222 223 225 227
327 331 327 331 348 354 350 344 338 336 335 337 341 342 341 343 346 352 3 11 15 19 22 22 22 24 25 27 29 32 36 45 51 61 77 79 80 89 90 84 78 90 166 191 193 191 188 181 176 189 201 203 201 206 213 218 221 220 218 219 221 222 222 222 221 221 221 221 221 222 222 223 225 227
330 332 330 341 354 354 347 341 336 334 335 339 345 346 344 346 351 359 10 17 18 21 24 26 27 28 28 28 29 30 32 40 50 58 67 71 72 78 83 86 88 98 201 222 211 201 198 193 191 198 205 207 207 209 213 219 223 221 217 216 219 222 223 223 224 225 225 226 225 225 224 224 224 226
334 336 339 351 356 351 344 339 335 336 340 344 350 352 352 354 359 7 15 19 21 24 26 28 29 30 31 31 31 31 32 37 45 54 62 70 78 82 82 87 96 105 151 213 219 215 210 208 208 209 207 208 212 214 216 222 226 224 220 217 218 221 223 224 225 225 225 226 227 227 227 226 226 226
343 344 350 1 360 353 347 341 339 341 345 349 354 357 1 7 9 12 17 18 21 25 28 29 30 31 33 34 33 33 34 36 40 46 52 58 65 73 79 84 88 91 98 131 183 202 209 212 215 216 214 213 216 215 215 221 226 226 225 222 220 220 221 223 224 225 225 225 226 227 228 228 227 227
351 353 2 9 4 356 349 342 339 343 347 352 357 0 8 16 15 16 19 20 22 26 28 29 30 31 33 35 35 35 35 35 38 42 46 48 51 56 66 73 74 78 85 97 118 144 175 201 214 220 219 217 219 218 216 221 228 230 229 227 224 222 224 224 223 224 225 225 224 225 226 227 226 225
2 6 13 13 3 353 347 343 344 350 354 359 3 6 14 21 20 19 22 22 24 27 28 28 28 30 32 35 37 38 37 36 37 40 44 46 47 50 55 58 58 62 72 85 95 103 112 134 172 208 218 219 219 219 218 220 227 232 234 235 233 231 230 227 224 223 223 222 222 222 224 225 224 223
14 18 19 12 0 354 354 357 3 9 12 15 17 19 24 27 27 26 26 25 26 29 30 29 28 28 30 33 36 38 39 39 38 39 40 43 46 48 49 50 50 52 56 62 70 81 93 99 98 97 128 200 210 209 209 210 212 218 224 230 234 234 233 231 228 224 221 219 219 219 221 223 223 223
21 24 21 10 2 2 8 15 22 27 29 30 30 31 32 33 34 33 32 31 32 33 34 33 31 30 30 32 35 36 37 39 40 40 41 42 44 45 46 46 46 47 48 51 55 63 75 89 95 94 95 114 149 164 175 183 184 189 203 212 218 224 227 229 229 228 224 222 220 220 221 223 223 224
29 29 22 14 11 16 23 29 33 35 37 37 38 39 39 38 38 38 37 36 36 37 38 36 35 35 34 34 35 36 36 37 38 39 41 42 43 45 45 44 43 43 44 45 47 51 58 68 83 92 93 96 102 105 108 129 149 159 175 191 201 210 218 222 224 224 226 226 224 222 223 224 224 223
40 37 29 24 26 31 35 37 39 40 40 41 42 43 43 42 42 42 41 40 39 40 40 39 38 38 38 38 38 37 36 36 36 37 38 40 42 43 44 44 43 43 42 41 41 43 48 53 60 69 76 81 81 74 67 71 92 115 136 157 177 195 208 217 219 219 221 223 224 225 225 226 226 225
55 48 42 40 41 43 43 43 44 44 43 43 44 45 45 44 44 45 45 44 43 43 43 41 40 41 40 40 40 40 39 37 37 37 37 38 39 40 42 42 42 42 41 40 39 39 40 43 46 49 54 60 63 61 60 64 68 73 91 113 129 164 190 203 211 215 218 220 222 224 226 227 229 228
78 66 62 59 53 51 49 47 47 46 45 46 46 46 47 47 46 47 46 46 45 45 45 44 43 42 42 41 41 41 40 39 38 38 38 38 38 37 38 39 39 40 40 39 38 38 38 37 38 39 40 43 45 44 49 57 59 58 65 74 81 112 163 176 188 206 219 223 224 225 226 227 229 230
109 98 92 80 66 58 52 50 49 46 45 45 46 46 47 48 47 47 46 45 45 45 45 44 43 42 43 42 41 41 41 40 39 39 38 38 38 37 36 37 37 37 38 38 36 36 35 34 34 35 35 36 36 34 36 43 48 52 54 54 55 74 125 152 164 180 212 226 229 229 228 228 231 232
140 135 132 106 81 68 55 50 49 46 44 43 43 43 44 45 46 46 45 43 43 43 43 43 42 41 41 41 41 41 41 40 40 40 39 39 39 37 37 37 36 36 36 36 35 34 33 32 31 32 33 34 34 35 37 40 45 51 56 56 54 62 80 107 140 158 186 215 223 226 227 228 230 231
161 159 160 141 102 78 61 51 48 45 42 41 40 40 40 41 43 43 43 42 41 41 41 41 40 40 40 40 39 39 39 39 39 38 38 39 38 37 36 36 37 37 36 35 34 34 34 33 30 30 32 32 31 33 36 36 35 40 48 55 60 70 80 86 96 103 114 203 214 220 227 231 233 236
175 175 175 163 132 91 65 53 46 42 40 39 38 37 37 40 42 42 42 42 41 40 40 40 39 38 38 38 38 38 37 37 37 36 36 36 36 36 35 34 35 36 36 35 34 33 34 33 29 27 29 29 29 32 33 30 26 26 31 39 47 66 89 89 86 81 69 53 226 227 236 237 238 243
183 184 186 179 162 123 78 54 44 40 39 37 36 36 37 39 41 41 41 41 40 39 40 40 39 37 36 37 37 36 35 35 35 35 34 34 34 34 33 32 33 33 33 34 35 34 33 31 29 27 28 28 28 29 29 27 24 21 21 24 30 43 71 88 92 90 80 68 65 10 279 258 248 252
189 191 192 189 184 172 121 47 33 34 36 37 36 35 36 39 40 39 40 40 39 38 38 38 38 37 36 35 36 35 34 34 34 33 32 32 33 33 32 31 31 30 30 30 32 33 33 33 31 30 31 31 30 28 25 22 21 20 18 17 20 28 42 58 76 95 97 88 80 68 7 285 270 267
194 195 197 197 197 194 190 7 8 15 23 31 38 38 38 39 39 39 39 39 38 37 37 37 36 36 35 34 34 34 32 32 32 32 31 30 30 31 30 30 30 29 28 27 27 28 29 31 32 32 32 31 31 30 27 23 20 18 16 15 18 22 26 31 34 38 54 68 59 42 25 353 303 278